Miscellaneous Local Product
Issued by NWS North Platte, NE

Home | Current Version | Previous Version | Text Only | Print | Product List | Glossary On
Versions: 1 2 3 4 5 6 7 8 9 10 11 12 13 14 15 16 17 18 19 20 21 22 23 24 25 26 27 28 29 30 31 32 33 34 35 36 37 38 39 40 41 42 43 44 45 46 47 48 49 50
000
AXUS43 KLBF 020610
MISLBF


WESTERN AND NORTH CENTRAL NEBRASKA HOURLY WEATHER ROUNDUP
NATIONAL WEATHER SERVICE NORTH PLATTE NE
100 AM CDT THU JUL 02 2015

***STATIONS NOT REPORTING VARIABLES SUCH AS SKY/WEATHER OR
PRESSURE ARE PROVIDED BY THE NEBRASKA DEPARTMENT OF
ROADS...RAWS...AND APRS NETWORKS...AND ARE NOT UNDER
NATIONAL WEATHER SERVICE QUALITY CONTROL***

...OBSERVATIONS IN AND NEAR THE EASTERN PANHANDLE OF NEBRASKA...

CITY           SKY/WX    TMP DP  RH WIND       PRES   REMARKS
PINE RIDGE     TSTM      67  64  90 N12       30.06R FOG
CHADRON        TSTM      65  60  84 NE26G44   30.09R
ALLIANCE       CLOUDY    70  60  70 E8        30.02F
SIDNEY         CLOUDY    64  60  87 S8        30.08F
WHITECLAY        N/A     66  58  76 W3          N/A
CRESCENT LAKE    N/A     68  58  71 E6          N/A
BIG SPRINGS      N/A     66  60  81 SE6         N/A
$$

...OBSERVATIONS IN NORTH CENTRAL NEBRASKA...

CITY           SKY/WX    TMP DP  RH WIND       PRES   REMARKS
VALENTINE      PTCLDY    66  64  93 E5        29.95F
BROKEN BOW     PTCLDY    66  63  90 N3        29.95F
VALENTINE NWR    N/A     65  63  94 SE5         N/A
SPRINGVIEW       N/A     68  65  92 CALM        N/A
HALSEY           N/A     68  64  85 CALM        N/A
BREWSTER         N/A     68  66  93 CALM        N/A
ROSE             N/A     80  80  99 E10         N/A
NEWPORT          N/A     66  66  99 E5          N/A
SARGENT          N/A     67  65  95 CALM        N/A
CHAMBERS         N/A     68  66  93 E3          N/A
EWING            N/A     68  66  94 E5G12       N/A
$$

...OBSERVATIONS IN SOUTHWEST NEBRASKA AND FAR NORTHEAST COLORADO...

CITY           SKY/WX    TMP DP  RH WIND       PRES   REMARKS
WRAY           LGT RAIN  71  56  59 SW21G30   30.03F
HOLYOKE        MOCLDY    73  55  53 NE3       30.08S
IMPERIAL       MOCLDY    74  57  55 N8        30.03S
NORTH PLATTE   CLOUDY    72  61  68 E6        29.96F
MCCOOK         MOCLDY    74  65  73 SW8       29.96S
PAXTON           N/A     73  63  71 S5          N/A
GOTHENBURG       N/A     72  64  75 CALM        N/A
CALLAWAY         N/A     67  64  90 CALM        N/A
$$

...NORTH PLATTE AREA...

CITY           SKY/WX    TMP DP  RH WIND       PRES   REMARKS
AIRPORT        CLOUDY    72  61  68 E6        29.96F
DOWNTOWN         N/A     74  63  67 CALM        N/A
HILLCREST        N/A     72  62  72 E9          N/A
$$

...SOME WEATHER OBSERVATIONS FROM AROUND THE REGION...

CITY           SKY/WX    TMP DP  RH WIND       PRES   REMARKS
DENVER         PTCLDY    62  56  80 SW9       30.15F
LARAMIE        CLEAR     55  52  89 S8        30.24F
CHEYENNE       CLEAR     59  52  77 W10       30.14F
SCOTTSBLUFF    MOCLDY    67  59  75 SE8       30.01F
RAPID CITY     TSTM      64  61  90 E15       29.99F FOG
PIERRE         CLOUDY    68  66  93 E7        29.92F
WINNER         FAIR      69  64  84 SE8       29.94F
SIOUX FALLS    CLEAR     61  56  83 E7        29.99S
OMAHA          CLOUDY    70  62  76 VRB7      29.93R
GRAND ISLAND   PTCLDY    70  66  87 E6        29.93F
KANSAS CITY    PTCLDY    74  70  87 E15       29.87R
WICHITA        MOCLDY    79  66  64 NW8       29.81F
HAYS           MOCLDY    75  63  64 NE7       29.90S
LIBERAL        MOCLDY    81  57  44 E10       29.97S
GOODLAND       CLOUDY    68  61  78 W6        30.04F
$$



USA.gov is the U.S. government's official web portal to all federal, state and local government web resources and services.